TIANZHOU-4 (52509 NORAD) Tracking and Keplerian Element Data
This shows tracking and keplerian element data for the satellite.
Feedback or suggestion? Click here.
Element | Value |
Catalog | 52509 |
Name | TIANZHOU-4 |
Epoch Orbit | 6449 |
Epoch Day | 166.42431351 |
Epoch Year | 2022 |
RAAN | 229.6505 |
Inclination | 41.4717 |
Eccentricity | 0.0004842 |
Argument of Perigee | 278.7193 |
Mean Anonmoly | 199.0868 |
Mean Motion | 15.60185964 |
Decay Rate | 0.00016665 |
L1 | 1 52509U 22050A 22166.42431351 .00016665 00000+0 20247-3 0 9991 |
L2 | 2 52509 41.4717 229.6505 0004842 278.7193 199.0868 15.60185964 64490 |
Live tracking and technical data element details for TIANZHOU-4 (NORAD 52509). TIANZHOU-4 can be tracked NOW for your location showing map with azimuth and elevation plus other details from your city location.
Track the satellite on the map from your city or location and see movement details for azimuth, elevation, latitude, longitude, range, height, and movement on the map or in text.
IsCatalogInMostPopularTable: catalog: 52509, numindb: 58
Update: records affected: 1
GetName: 52509 TIANZHOU-4
Hit Count: updated at: Sat, 25 Jun 2022 03:59:01 GMT